User: anonymous   Login
Location: Vancouver
(49.2500°N, 123.1330°W)
Time: 05:24:11
(UTC-07:00)
Language:

CZ-2C R/B - Orbit

View from above orbital plane
View from above orbital plane
View from above satellite
View from above satellite

Ground track
Ground track

The orbit data is extracted from the following two-line orbital elements,

1 28480U 04046B   17080.87232194 +.00000009 +00000-0 +18420-4 0  9996
2 28480 098.1918 182.7079 0143156 122.0439 348.8735 14.25630396641777
Epoch (UTC): 21 March 2017 20:56:08
Eccentricity: 0.0143156
inclination: 98.1918°
perigee height: 703 km
apogee height: 909 km
right ascension of ascending node: 182.7079°
argument of perigee: 122.0439°
revolutions per day: 14.25630396
mean anomaly at epoch: 348.8735°
orbit number at epoch: 64177

The dashed part of the orbit path shows where the satellite is in the earth's shadow,  

DLR